;"Summenlastgang aller Einspeisungen
Umspannung MS/NS
+ Bezug vorgelagertes Netz
+ dez. Erzeugung"
Arbeit;1.077.095.663
H�chstleistung;208.497
Zeitpunkt;11.01.2022 17:45
01.01.2022 00:00;110.182
01.01.2022 00:15;107.678
01.01.2022 00:30;105.915
01.01.2022 00:45;105.491
01.01.2022 01:00;103.356
01.01.2022 01:15;100.996
01.01.2022 01:30;97.850
01.01.2022 01:45;95.941
01.01.2022 02:00;94.543
01.01.2022 02:15;90.742
01.01.2022 02:30;90.722
01.01.2022 02:45;87.733
01.01.2022 03:00;86.518
01.01.2022 03:15;85.357
01.01.2022 03:30;84.770
01.01.2022 03:45;81.442
01.01.2022 04:00;81.665
01.01.2022 04:15;80.491
01.01.2022 04:30;80.703
01.01.2022 04:45;79.754
01.01.2022 05:00;79.740
01.01.2022 05:15;80.153
01.01.2022 05:30;78.920
01.01.2022 05:45;80.104
01.01.2022 06:00;79.410
01.01.2022 06:15;78.292
01.01.2022 06:30;81.136
01.01.2022 06:45;80.454
01.01.2022 07:00;81.150
01.01.2022 07:15;83.257
01.01.2022 07:30;85.813
01.01.2022 07:45;87.019
01.01.2022 08:00;89.928
01.01.2022 08:15;93.418
01.01.2022 08:30;93.132
01.01.2022 08:45;97.224
01.01.2022 09:00;101.508
01.01.2022 09:15;105.741
01.01.2022 09:30;110.828
01.01.2022 09:45;115.775
01.01.2022 10:00;119.672
01.01.2022 10:15;122.521
01.01.2022 10:30;127.993
01.01.2022 10:45;130.514
01.01.2022 11:00;133.872
01.01.2022 11:15;139.563
01.01.2022 11:30;142.062
01.01.2022 11:45;145.716
01.01.2022 12:00;146.784
01.01.2022 12:15;147.724
01.01.2022 12:30;146.788
01.01.2022 12:45;147.762
01.01.2022 13:00;147.777
01.01.2022 13:15;146.020
01.01.2022 13:30;145.328
01.01.2022 13:45;145.643
01.01.2022 14:00;144.396
01.01.2022 14:15;143.668
01.01.2022 14:30;144.765
01.01.2022 14:45;142.722
01.01.2022 15:00;143.762
01.01.2022 15:15;143.129
01.01.2022 15:30;144.214
01.01.2022 15:45;146.683
01.01.2022 16:00;148.799
01.01.2022 16:15;154.195
01.01.2022 16:30;160.253
01.01.2022 16:45;164.455
01.01.2022 17:00;166.846
01.01.2022 17:15;169.751
01.01.2022 17:30;171.653
01.01.2022 17:45;173.495
01.01.2022 18:00;174.046
01.01.2022 18:15;175.094
01.01.2022 18:30;172.427
01.01.2022 18:45;172.051
01.01.2022 19:00;170.342
01.01.2022 19:15;168.583
01.01.2022 19:30;164.434
01.01.2022 19:45;162.066
01.01.2022 20:00;157.855
01.01.2022 20:15;153.713
01.01.2022 20:30;149.164
01.01.2022 20:45;146.378
01.01.2022 21:00;141.969
01.01.2022 21:15;139.057
01.01.2022 21:30;135.566
01.01.2022 21:45;133.032
01.01.2022 22:00;135.624
01.01.2022 22:15;130.819
01.01.2022 22:30;126.960
01.01.2022 22:45;123.929
01.01.2022 23:00;119.006
01.01.2022 23:15;114.396
01.01.2022 23:30;111.637
01.01.2022 23:45;107.211
02.01.2022 00:00;102.573
02.01.2022 00:15;98.452
02.01.2022 00:30;95.230
02.01.2022 00:45;90.685
02.01.2022 01:00;89.140
02.01.2022 01:15;86.542
02.01.2022 01:30;83.630
02.01.2022 01:45;82.522
02.01.2022 02:00;79.827
02.01.2022 02:15;80.035
02.01.2022 02:30;78.531
02.01.2022 02:45;76.622
02.01.2022 03:00;76.967
02.01.2022 03:15;76.177
02.01.2022 03:30;76.196
02.01.2022 03:45;74.260
02.01.2022 04:00;75.097
02.01.2022 04:15;76.033
02.01.2022 04:30;75.437
02.01.2022 04:45;76.256
02.01.2022 05:00;76.162
02.01.2022 05:15;77.329
02.01.2022 05:30;77.996
02.01.2022 05:45;77.784
02.01.2022 06:00;80.135
02.01.2022 06:15;79.567
02.01.2022 06:30;80.895
02.01.2022 06:45;82.183
02.01.2022 07:00;86.296
02.01.2022 07:15;87.725
02.01.2022 07:30;91.956
02.01.2022 07:45;94.308
02.01.2022 08:00;99.621
02.01.2022 08:15;105.661
02.01.2022 08:30;110.303
02.01.2022 08:45;113.673
02.01.2022 09:00;117.349
02.01.2022 09:15;123.969
02.01.2022 09:30;129.175
02.01.2022 09:45;134.235
02.01.2022 10:00;138.624
02.01.2022 10:15;141.687
02.01.2022 10:30;147.020
02.01.2022 10:45;150.888
02.01.2022 11:00;153.538
02.01.2022 11:15;156.122
02.01.2022 11:30;158.653
02.01.2022 11:45;162.005
02.01.2022 12:00;163.614
02.01.2022 12:15;168.002
02.01.2022 12:30;166.846
02.01.2022 12:45;164.976
02.01.2022 13:00;164.985
02.01.2022 13:15;165.725
02.01.2022 13:30;164.137
02.01.2022 13:45;163.144
02.01.2022 14:00;161.420
02.01.2022 14:15;159.491
02.01.2022 14:30;160.420
02.01.2022 14:45;160.271
02.01.2022 15:00;161.352
02.01.2022 15:15;160.055
02.01.2022 15:30;162.498
02.01.2022 15:45;163.113
02.01.2022 16:00;166.020
02.01.2022 16:15;165.993
02.01.2022 16:30;166.478
02.01.2022 16:45;172.728
02.01.2022 17:00;177.504
02.01.2022 17:15;178.967
02.01.2022 17:30;182.038
02.01.2022 17:45;182.446
02.01.2022 18:00;183.449
02.01.2022 18:15;183.297
02.01.2022 18:30;183.094
02.01.2022 18:45;180.647
02.01.2022 19:00;175.505
02.01.2022 19:15;174.789
02.01.2022 19:30;171.871
02.01.2022 19:45;168.299
02.01.2022 20:00;164.141
02.01.2022 20:15;159.738
02.01.2022 20:30;153.636
02.01.2022 20:45;150.735
02.01.2022 21:00;147.100
02.01.2022 21:15;141.245
02.01.2022 21:30;138.452
02.01.2022 21:45;136.597
02.01.2022 22:00;136.250
02.01.2022 22:15;132.722
02.01.2022 22:30;126.567
02.01.2022 22:45;123.353
02.01.2022 23:00;117.292
02.01.2022 23:15;112.180
02.01.2022 23:30;108.194
02.01.2022 23:45;103.401
03.01.2022 00:00;99.841
03.01.2022 00:15;94.107
03.01.2022 00:30;92.472
03.01.2022 00:45;88.381
03.01.2022 01:00;85.502
03.01.2022 01:15;84.981
03.01.2022 01:30;83.393
03.01.2022 01:45;81.795
03.01.2022 02:00;79.900
03.01.2022 02:15;78.906
03.01.2022 02:30;78.387
03.01.2022 02:45;78.205
03.01.2022 03:00;76.812
03.01.2022 03:15;76.540
03.01.2022 03:30;76.083
03.01.2022 03:45;76.400
03.01.2022 04:00;77.195
03.01.2022 04:15;78.616
03.01.2022 04:30;79.969
03.01.2022 04:45;82.937
03.01.2022 05:00;86.356
03.01.2022 05:15;88.068
03.01.2022 05:30;90.703
03.01.2022 05:45;95.166
03.01.2022 06:00;102.536
03.01.2022 06:15;107.196
03.01.2022 06:30;111.145
03.01.2022 06:45;118.032
03.01.2022 07:00;122.266
03.01.2022 07:15;128.471
03.01.2022 07:30;134.580
03.01.2022 07:45;140.530
03.01.2022 08:00;144.241
03.01.2022 08:15;147.750
03.01.2022 08:30;147.194
03.01.2022 08:45;152.153
03.01.2022 09:00;154.264
03.01.2022 09:15;157.201
03.01.2022 09:30;160.136
03.01.2022 09:45;161.505
03.01.2022 10:00;164.181
03.01.2022 10:15;163.393
03.01.2022 10:30;165.679
03.01.2022 10:45;164.969
03.01.2022 11:00;166.376
03.01.2022 11:15;166.781
03.01.2022 11:30;170.311
03.01.2022 11:45;170.368
03.01.2022 12:00;172.924
03.01.2022 12:15;174.553
03.01.2022 12:30;173.499
03.01.2022 12:45;171.951
03.01.2022 13:00;169.964
03.01.2022 13:15;170.250
03.01.2022 13:30;170.683
03.01.2022 13:45;167.727
03.01.2022 14:00;168.401
03.01.2022 14:15;167.220
03.01.2022 14:30;167.134
03.01.2022 14:45;166.828
03.01.2022 15:00;167.078
03.01.2022 15:15;167.472
03.01.2022 15:30;166.319
03.01.2022 15:45;166.015
03.01.2022 16:00;169.082
03.01.2022 16:15;171.993
03.01.2022 16:30;179.267
03.01.2022 16:45;182.617
03.01.2022 17:00;186.243
03.01.2022 17:15;190.391
03.01.2022 17:30;191.601
03.01.2022 17:45;194.396
03.01.2022 18:00;194.188
03.01.2022 18:15;194.260
03.01.2022 18:30;193.784
03.01.2022 18:45;192.277
03.01.2022 19:00;189.378
03.01.2022 19:15;186.782
03.01.2022 19:30;180.434
03.01.2022 19:45;177.065
03.01.2022 20:00;173.646
03.01.2022 20:15;167.615
03.01.2022 20:30;162.036
03.01.2022 20:45;157.844
03.01.2022 21:00;153.026
03.01.2022 21:15;148.431
03.01.2022 21:30;143.590
03.01.2022 21:45;142.207
03.01.2022 22:00;141.381
03.01.2022 22:15;135.391
03.01.2022 22:30;129.523
03.01.2022 22:45;124.208
03.01.2022 23:00;119.710
03.01.2022 23:15;115.428
03.01.2022 23:30;109.687
03.01.2022 23:45;104.633
04.01.2022 00:00;99.955
04.01.2022 00:15;96.845
04.01.2022 00:30;92.085
04.01.2022 00:45;90.627
04.01.2022 01:00;86.560
04.01.2022 01:15;83.972
04.01.2022 01:30;82.381
04.01.2022 01:45;81.297
04.01.2022 02:00;79.003
04.01.2022 02:15;79.095
04.01.2022 02:30;77.878
04.01.2022 02:45;76.803
04.01.2022 03:00;76.592
04.01.2022 03:15;75.829
04.01.2022 03:30;76.770
04.01.2022 03:45;76.150
04.01.2022 04:00;78.447
04.01.2022 04:15;78.203
04.01.2022 04:30;80.821
04.01.2022 04:45;81.591
04.01.2022 05:00;87.093
04.01.2022 05:15;87.085
04.01.2022 05:30;92.237
04.01.2022 05:45;95.454
04.01.2022 06:00;101.671
04.01.2022 06:15;105.115
04.01.2022 06:30;111.140
04.01.2022 06:45;115.663
04.01.2022 07:00;122.367
04.01.2022 07:15;128.034
04.01.2022 07:30;133.681
04.01.2022 07:45;138.418
04.01.2022 08:00;144.968
04.01.2022 08:15;149.494
04.01.2022 08:30;150.042
04.01.2022 08:45;152.311
04.01.2022 09:00;154.515
04.01.2022 09:15;156.219
04.01.2022 09:30;159.209
04.01.2022 09:45;160.697
04.01.2022 10:00;164.172
04.01.2022 10:15;164.367
04.01.2022 10:30;167.120
04.01.2022 10:45;167.998
04.01.2022 11:00;170.495
04.01.2022 11:15;172.802
04.01.2022 11:30;175.156
04.01.2022 11:45;176.950
04.01.2022 12:00;180.876
04.01.2022 12:15;180.910
04.01.2022 12:30;182.047
04.01.2022 12:45;181.372
04.01.2022 13:00;179.304
04.01.2022 13:15;178.042
04.01.2022 13:30;176.219
04.01.2022 13:45;174.053
04.01.2022 14:00;173.820
04.01.2022 14:15;173.233
04.01.2022 14:30;173.333
04.01.2022 14:45;170.592
04.01.2022 15:00;172.816
04.01.2022 15:15;170.922
04.01.2022 15:30;171.586
04.01.2022 15:45;170.247
04.01.2022 16:00;171.388
04.01.2022 16:15;175.177
04.01.2022 16:30;181.236
04.01.2022 16:45;184.833
04.01.2022 17:00;190.816
04.01.2022 17:15;191.242
04.01.2022 17:30;195.190
04.01.2022 17:45;197.425
04.01.2022 18:00;198.529
04.01.2022 18:15;198.159
04.01.2022 18:30;196.021
04.01.2022 18:45;194.925
04.01.2022 19:00;190.915
04.01.2022 19:15;187.146
04.01.2022 19:30;183.286
04.01.2022 19:45;179.884
04.01.2022 20:00;175.298
04.01.2022 20:15;170.926
04.01.2022 20:30;166.590
04.01.2022 20:45;160.651
04.01.2022 21:00;156.857
04.01.2022 21:15;151.880
04.01.2022 21:30;147.849
04.01.2022 21:45;144.492
04.01.2022 22:00;143.722
04.01.2022 22:15;138.220
04.01.2022 22:30;132.138
04.01.2022 22:45;127.442
04.01.2022 23:00;121.584
04.01.2022 23:15;117.458
04.01.2022 23:30;111.994
04.01.2022 23:45;106.410
05.01.2022 00:00;103.656
05.01.2022 00:15;98.171
05.01.2022 00:30;94.433
05.01.2022 00:45;93.306
05.01.2022 01:00;89.952
05.01.2022 01:15;87.411
05.01.2022 01:30;85.320
05.01.2022 01:45;83.887
05.01.2022 02:00;83.388
05.01.2022 02:15;81.912
05.01.2022 02:30;81.549
05.01.2022 02:45;80.228
05.01.2022 03:00;81.346
05.01.2022 03:15;80.116
05.01.2022 03:30;81.840
05.01.2022 03:45;81.493
05.01.2022 04:00;82.744
05.01.2022 04:15;83.405
05.01.2022 04:30;86.413
05.01.2022 04:45;86.160
05.01.2022 05:00;91.583
05.01.2022 05:15;91.688
05.01.2022 05:30;97.326
05.01.2022 05:45;101.400
05.01.2022 06:00;106.202
05.01.2022 06:15;110.748
05.01.2022 06:30;116.491
05.01.2022 06:45;120.689
05.01.2022 07:00;128.449
05.01.2022 07:15;134.455
05.01.2022 07:30;139.784
05.01.2022 07:45;145.473
05.01.2022 08:00;150.179
05.01.2022 08:15;154.490
05.01.2022 08:30;155.057
05.01.2022 08:45;157.148
05.01.2022 09:00;159.068
05.01.2022 09:15;163.193
05.01.2022 09:30;165.194
05.01.2022 09:45;168.801
05.01.2022 10:00;169.877
05.01.2022 10:15;170.969
05.01.2022 10:30;174.563
05.01.2022 10:45;172.733
05.01.2022 11:00;175.133
05.01.2022 11:15;178.405
05.01.2022 11:30;180.260
05.01.2022 11:45;183.158
05.01.2022 12:00;183.973
05.01.2022 12:15;182.929
05.01.2022 12:30;184.555
05.01.2022 12:45;179.176
05.01.2022 13:00;178.286
05.01.2022 13:15;178.742
05.01.2022 13:30;175.270
05.01.2022 13:45;172.309
05.01.2022 14:00;176.963
05.01.2022 14:15;175.787
05.01.2022 14:30;173.167
05.01.2022 14:45;170.795
05.01.2022 15:00;170.715
05.01.2022 15:15;169.789
05.01.2022 15:30;170.851
05.01.2022 15:45;173.638
05.01.2022 16:00;176.427
05.01.2022 16:15;180.241
05.01.2022 16:30;182.066
05.01.2022 16:45;189.692
05.01.2022 17:00;193.415
05.01.2022 17:15;195.929
05.01.2022 17:30;200.072
05.01.2022 17:45;200.545
05.01.2022 18:00;203.260
05.01.2022 18:15;200.960
05.01.2022 18:30;200.988
05.01.2022 18:45;198.137
05.01.2022 19:00;194.569
05.01.2022 19:15;192.727
05.01.2022 19:30;185.688
05.01.2022 19:45;183.222
05.01.2022 20:00;177.653
05.01.2022 20:15;171.601
05.01.2022 20:30;168.839
05.01.2022 20:45;162.978
05.01.2022 21:00;158.730
05.01.2022 21:15;152.443
05.01.2022 21:30;149.238
05.01.2022 21:45;145.348
05.01.2022 22:00;143.890
05.01.2022 22:15;139.057
05.01.2022 22:30;134.233
05.01.2022 22:45;131.415
05.01.2022 23:00;123.676
05.01.2022 23:15;117.346
05.01.2022 23:30;113.705
05.01.2022 23:45;108.875
06.01.2022 00:00;103.946
06.01.2022 00:15;100.645
06.01.2022 00:30;96.113
06.01.2022 00:45;93.901
06.01.2022 01:00;92.279
06.01.2022 01:15;89.092
06.01.2022 01:30;87.802
06.01.2022 01:45;86.282
06.01.2022 02:00;84.178
06.01.2022 02:15;82.976
06.01.2022 02:30;83.116
06.01.2022 02:45;82.318
06.01.2022 03:00;81.276
06.01.2022 03:15;81.614
06.01.2022 03:30;82.315
06.01.2022 03:45;82.237
06.01.2022 04:00;82.765
06.01.2022 04:15;84.307
06.01.2022 04:30;86.042
06.01.2022 04:45;86.972
06.01.2022 05:00;91.541
06.01.2022 05:15;91.633
06.01.2022 05:30;96.078
06.01.2022 05:45;100.336
06.01.2022 06:00;106.232
06.01.2022 06:15;111.337
06.01.2022 06:30;117.131
06.01.2022 06:45;121.283
06.01.2022 07:00;129.046
06.01.2022 07:15;136.196
06.01.2022 07:30;141.243
06.01.2022 07:45;146.407
06.01.2022 08:00;151.662
06.01.2022 08:15;154.016
06.01.2022 08:30;155.195
06.01.2022 08:45;158.303
06.01.2022 09:00;158.992
06.01.2022 09:15;163.034
06.01.2022 09:30;164.147
06.01.2022 09:45;164.363
06.01.2022 10:00;165.866
06.01.2022 10:15;166.952
06.01.2022 10:30;165.814
06.01.2022 10:45;166.787
06.01.2022 11:00;168.206
06.01.2022 11:15;167.768
06.01.2022 11:30;168.576
06.01.2022 11:45;171.323
06.01.2022 12:00;170.843
06.01.2022 12:15;173.218
06.01.2022 12:30;172.803
06.01.2022 12:45;171.694
06.01.2022 13:00;170.801
06.01.2022 13:15;169.593
06.01.2022 13:30;167.804
06.01.2022 13:45;167.461
06.01.2022 14:00;166.777
06.01.2022 14:15;166.556
06.01.2022 14:30;165.282
06.01.2022 14:45;165.885
06.01.2022 15:00;167.056
06.01.2022 15:15;168.086
06.01.2022 15:30;167.101
06.01.2022 15:45;170.037
06.01.2022 16:00;170.635
06.01.2022 16:15;172.390
06.01.2022 16:30;178.635
06.01.2022 16:45;187.012
06.01.2022 17:00;191.252
06.01.2022 17:15;195.589
06.01.2022 17:30;198.761
06.01.2022 17:45;201.019
06.01.2022 18:00;200.990
06.01.2022 18:15;201.098
06.01.2022 18:30;201.046
06.01.2022 18:45;199.351
06.01.2022 19:00;195.138
06.01.2022 19:15;192.607
06.01.2022 19:30;187.644
06.01.2022 19:45;184.386
06.01.2022 20:00;178.929
06.01.2022 20:15;172.932
06.01.2022 20:30;170.105
06.01.2022 20:45;163.561
06.01.2022 21:00;159.856
06.01.2022 21:15;153.000
06.01.2022 21:30;150.164
06.01.2022 21:45;148.452
06.01.2022 22:00;144.804
06.01.2022 22:15;142.373
06.01.2022 22:30;135.558
06.01.2022 22:45;130.338
06.01.2022 23:00;124.855
06.01.2022 23:15;120.086
06.01.2022 23:30;115.016
06.01.2022 23:45;110.977
07.01.2022 00:00;106.249
07.01.2022 00:15;98.528
07.01.2022 00:30;96.893
07.01.2022 00:45;94.253
07.01.2022 01:00;91.841
07.01.2022 01:15;89.351
07.01.2022 01:30;87.353
07.01.2022 01:45;86.136
07.01.2022 02:00;83.292
07.01.2022 02:15;84.092
07.01.2022 02:30;82.036
07.01.2022 02:45;81.298
07.01.2022 03:00;82.597
07.01.2022 03:15;79.191
07.01.2022 03:30;78.086
07.01.2022 03:45;79.793
07.01.2022 04:00;79.289
07.01.2022 04:15;82.262
07.01.2022 04:30;86.358
07.01.2022 04:45;86.888
07.01.2022 05:00;89.696
07.01.2022 05:15;93.822
07.01.2022 05:30;96.274
07.01.2022 05:45;101.881
07.01.2022 06:00;102.894
07.01.2022 06:15;110.515
07.01.2022 06:30;116.514
07.01.2022 06:45;121.839
07.01.2022 07:00;128.074
07.01.2022 07:15;135.606
07.01.2022 07:30;140.411
07.01.2022 07:45;147.046
07.01.2022 08:00;151.971
07.01.2022 08:15;155.481
07.01.2022 08:30;156.638
07.01.2022 08:45;158.747
07.01.2022 09:00;161.576
07.01.2022 09:15;164.707
07.01.2022 09:30;167.803
07.01.2022 09:45;170.492
07.01.2022 10:00;170.606
07.01.2022 10:15;173.163
07.01.2022 10:30;174.636
07.01.2022 10:45;173.643
07.01.2022 11:00;176.423
07.01.2022 11:15;177.405
07.01.2022 11:30;182.269
07.01.2022 11:45;183.576
07.01.2022 12:00;184.169
07.01.2022 12:15;185.429
07.01.2022 12:30;184.027
07.01.2022 12:45;184.073
07.01.2022 13:00;182.479
07.01.2022 13:15;178.100
07.01.2022 13:30;174.840
07.01.2022 13:45;175.231
07.01.2022 14:00;173.938
07.01.2022 14:15;174.757
07.01.2022 14:30;173.053
07.01.2022 14:45;171.909
07.01.2022 15:00;173.428
07.01.2022 15:15;173.123
07.01.2022 15:30;170.955
07.01.2022 15:45;173.440
07.01.2022 16:00;176.414
07.01.2022 16:15;179.475
07.01.2022 16:30;182.377
07.01.2022 16:45;188.806
07.01.2022 17:00;192.357
07.01.2022 17:15;194.225
07.01.2022 17:30;196.335
07.01.2022 17:45;198.552
07.01.2022 18:00;197.900
07.01.2022 18:15;198.364
07.01.2022 18:30;196.210
07.01.2022 18:45;195.314
07.01.2022 19:00;191.437
07.01.2022 19:15;189.207
07.01.2022 19:30;184.956
07.01.2022 19:45;179.134
07.01.2022 20:00;175.595
07.01.2022 20:15;172.425
07.01.2022 20:30;168.249
07.01.2022 20:45;162.935
07.01.2022 21:00;159.218
07.01.2022 21:15;155.504
07.01.2022 21:30;151.599
07.01.2022 21:45;146.868
07.01.2022 22:00;147.531
07.01.2022 22:15;142.739
07.01.2022 22:30;138.457
07.01.2022 22:45;134.351
07.01.2022 23:00;127.968
07.01.2022 23:15;124.659
07.01.2022 23:30;121.031
07.01.2022 23:45;115.765
08.01.2022 00:00;112.858
08.01.2022 00:15;107.500
08.01.2022 00:30;104.733
08.01.2022 00:45;100.755
08.01.2022 01:00;97.730
08.01.2022 01:15;94.680
08.01.2022 01:30;92.905
08.01.2022 01:45;90.885
08.01.2022 02:00;88.639
08.01.2022 02:15;87.066
08.01.2022 02:30;86.282
08.01.2022 02:45;85.672
08.01.2022 03:00;83.622
08.01.2022 03:15;84.920
08.01.2022 03:30;83.557
08.01.2022 03:45;83.319
08.01.2022 04:00;83.152
08.01.2022 04:15;84.411
08.01.2022 04:30;84.655
08.01.2022 04:45;84.779
08.01.2022 05:00;86.187
08.01.2022 05:15;87.593
08.01.2022 05:30;89.409
08.01.2022 05:45;91.506
08.01.2022 06:00;92.515
08.01.2022 06:15;93.487
08.01.2022 06:30;95.767
08.01.2022 06:45;97.990
08.01.2022 07:00;101.328
08.01.2022 07:15;104.838
08.01.2022 07:30;110.493
08.01.2022 07:45;115.912
08.01.2022 08:00;122.096
08.01.2022 08:15;124.627
08.01.2022 08:30;130.694
08.01.2022 08:45;136.608
08.01.2022 09:00;141.186
08.01.2022 09:15;146.689
08.01.2022 09:30;150.994
08.01.2022 09:45;153.265
08.01.2022 10:00;157.261
08.01.2022 10:15;158.172
08.01.2022 10:30;160.774
08.01.2022 10:45;162.324
08.01.2022 11:00;163.518
08.01.2022 11:15;166.435
08.01.2022 11:30;167.799
08.01.2022 11:45;168.976
08.01.2022 12:00;171.163
08.01.2022 12:15;173.632
08.01.2022 12:30;170.051
08.01.2022 12:45;169.399
08.01.2022 13:00;167.337
08.01.2022 13:15;166.777
08.01.2022 13:30;166.682
08.01.2022 13:45;167.678
08.01.2022 14:00;166.850
08.01.2022 14:15;165.712
08.01.2022 14:30;166.282
08.01.2022 14:45;171.566
08.01.2022 15:00;170.526
08.01.2022 15:15;171.998
08.01.2022 15:30;171.545
08.01.2022 15:45;170.699
08.01.2022 16:00;173.355
08.01.2022 16:15;176.646
08.01.2022 16:30;181.223
08.01.2022 16:45;187.232
08.01.2022 17:00;189.215
08.01.2022 17:15;194.214
08.01.2022 17:30;195.993
08.01.2022 17:45;198.230
08.01.2022 18:00;198.480
08.01.2022 18:15;198.486
08.01.2022 18:30;196.804
08.01.2022 18:45;196.495
08.01.2022 19:00;192.786
08.01.2022 19:15;189.098
08.01.2022 19:30;186.455
08.01.2022 19:45;180.924
08.01.2022 20:00;177.603
08.01.2022 20:15;171.177
08.01.2022 20:30;166.024
08.01.2022 20:45;160.496
08.01.2022 21:00;156.963
08.01.2022 21:15;152.704
08.01.2022 21:30;149.240
08.01.2022 21:45;146.791
08.01.2022 22:00;145.812
08.01.2022 22:15;143.102
08.01.2022 22:30;138.630
08.01.2022 22:45;135.177
08.01.2022 23:00;129.506
08.01.2022 23:15;126.659
08.01.2022 23:30;121.342
08.01.2022 23:45;117.784
09.01.2022 00:00;114.108
09.01.2022 00:15;109.113
09.01.2022 00:30;103.678
09.01.2022 00:45;102.130
09.01.2022 01:00;99.007
09.01.2022 01:15;95.346
09.01.2022 01:30;92.955
09.01.2022 01:45;90.488
09.01.2022 02:00;88.600
09.01.2022 02:15;87.627
09.01.2022 02:30;85.262
09.01.2022 02:45;84.430
09.01.2022 03:00;83.876
09.01.2022 03:15;82.626
09.01.2022 03:30;81.396
09.01.2022 03:45;82.513
09.01.2022 04:00;82.092
09.01.2022 04:15;80.336
09.01.2022 04:30;82.239
09.01.2022 04:45;80.921
09.01.2022 05:00;83.101
09.01.2022 05:15;82.769
09.01.2022 05:30;83.926
09.01.2022 05:45;83.617
09.01.2022 06:00;84.135
09.01.2022 06:15;84.400
09.01.2022 06:30;85.626
09.01.2022 06:45;89.382
09.01.2022 07:00;91.510
09.01.2022 07:15;94.305
09.01.2022 07:30;97.487
09.01.2022 07:45;102.170
09.01.2022 08:00;109.087
09.01.2022 08:15;113.553
09.01.2022 08:30;118.769
09.01.2022 08:45;123.634
09.01.2022 09:00;128.322
09.01.2022 09:15;134.624
09.01.2022 09:30;141.738
09.01.2022 09:45;145.391
09.01.2022 10:00;152.198
09.01.2022 10:15;156.523
09.01.2022 10:30;159.611
09.01.2022 10:45;162.780
09.01.2022 11:00;167.875
09.01.2022 11:15;170.456
09.01.2022 11:30;174.879
09.01.2022 11:45;178.008
09.01.2022 12:00;179.671
09.01.2022 12:15;181.552
09.01.2022 12:30;183.870
09.01.2022 12:45;179.128
09.01.2022 13:00;179.488
09.01.2022 13:15;177.127
09.01.2022 13:30;176.309
09.01.2022 13:45;174.040
09.01.2022 14:00;172.273
09.01.2022 14:15;170.386
09.01.2022 14:30;171.019
09.01.2022 14:45;168.860
09.01.2022 15:00;169.371
09.01.2022 15:15;168.129
09.01.2022 15:30;167.685
09.01.2022 15:45;167.780
09.01.2022 16:00;168.172
09.01.2022 16:15;171.743
09.01.2022 16:30;176.444
09.01.2022 16:45;183.212
09.01.2022 17:00;187.345
09.01.2022 17:15;191.556
09.01.2022 17:30;195.690
09.01.2022 17:45;198.027
09.01.2022 18:00;199.873
09.01.2022 18:15;199.588
09.01.2022 18:30;198.067
09.01.2022 18:45;195.245
09.01.2022 19:00;192.134
09.01.2022 19:15;188.756
09.01.2022 19:30;184.646
09.01.2022 19:45;180.861
09.01.2022 20:00;175.852
09.01.2022 20:15;170.228
09.01.2022 20:30;164.795
09.01.2022 20:45;159.234
09.01.2022 21:00;154.594
09.01.2022 21:15;151.034
09.01.2022 21:30;144.317
09.01.2022 21:45;143.726
09.01.2022 22:00;141.123
09.01.2022 22:15;136.757
09.01.2022 22:30;130.730
09.01.2022 22:45;124.570
09.01.2022 23:00;120.968
09.01.2022 23:15;114.356
09.01.2022 23:30;109.388
09.01.2022 23:45;104.648
10.01.2022 00:00;101.147
10.01.2022 00:15;96.623
10.01.2022 00:30;92.604
10.01.2022 00:45;90.324
10.01.2022 01:00;88.405
10.01.2022 01:15;86.604
10.01.2022 01:30;83.277
10.01.2022 01:45;82.886
10.01.2022 02:00;81.924
10.01.2022 02:15;80.767
10.01.2022 02:30;79.231
10.01.2022 02:45;79.653
10.01.2022 03:00;80.391
10.01.2022 03:15;79.004
10.01.2022 03:30;80.285
10.01.2022 03:45;80.165
10.01.2022 04:00;81.584
10.01.2022 04:15;84.183
10.01.2022 04:30;85.065
10.01.2022 04:45;87.577
10.01.2022 05:00;91.099
10.01.2022 05:15;92.355
10.01.2022 05:30;98.219
10.01.2022 05:45;102.692
10.01.2022 06:00;113.800
10.01.2022 06:15;120.343
10.01.2022 06:30;128.949
10.01.2022 06:45;137.064
10.01.2022 07:00;142.005
10.01.2022 07:15;147.837
10.01.2022 07:30;151.796
10.01.2022 07:45;156.188
10.01.2022 08:00;161.114
10.01.2022 08:15;161.349
10.01.2022 08:30;162.837
10.01.2022 08:45;162.434
10.01.2022 09:00;165.783
10.01.2022 09:15;166.572
10.01.2022 09:30;167.582
10.01.2022 09:45;167.081
10.01.2022 10:00;169.017
10.01.2022 10:15;169.058
10.01.2022 10:30;169.143
10.01.2022 10:45;168.153
10.01.2022 11:00;169.345
10.01.2022 11:15;172.364
10.01.2022 11:30;170.852
10.01.2022 11:45;171.602
10.01.2022 12:00;172.270
10.01.2022 12:15;173.307
10.01.2022 12:30;171.077
10.01.2022 12:45;170.713
10.01.2022 13:00;169.922
10.01.2022 13:15;169.199
10.01.2022 13:30;168.058
10.01.2022 13:45;168.776
10.01.2022 14:00;167.583
10.01.2022 14:15;167.225
10.01.2022 14:30;166.888
10.01.2022 14:45;164.812
10.01.2022 15:00;166.148